USA 176 (DSP 22)

Last updated on Sat Jun 21 2025 00:02:42 GMT+0000 (Coordinated Universal Time)

1 28158U 04004A 25171.58889756 .00000098 00000+0 00000+0 0 9999 2 28158 11.5642 28.6335 0001774 209.0844 67.4892 1.01087909 29303
UTC large
Height (km)
Speed (km/s)
/
Latitude / Longitude
Inclination (degrees)
Orbital Period (minutes)
Azimuth
Elevation
Range (km)
Doppler Factor

Next 0 passes for location: London (51.5072 / 0.1276)

Sorry there are no passes over London.